GEFSCGP_prec_meanprecacc_024.txt.gz
Total_Precipitation_Accumulation
0.05 0.09 0.19 0.15 0.11 0.08 0.03 0.02 0.03 0.05 0.07 0.04 0.02 0.01 0.00 0.00 0.00 0.00 0.00 0.00 0.00 0.00 0.00 0.00 0.00 0.01 0.03 0.07 0.11 0.14 0.27 0.37 0.48 0.57 0.59 0.64 0.69 0.67 0.66 0.66 0.58 0.47 0.29 0.18
0.06 0.10 0.08 0.05 0.04 0.04 0.03 0.04 0.04 0.05 0.04 0.03 0.02 0.01 0.00 0.00 0.00 0.00 0.00 0.00 0.00 0.00 0.00 0.00 0.01 0.03 0.04 0.05 0.09 0.14 0.25 0.40 0.51 0.61 0.63 0.59 0.70 0.72 0.68 0.73 0.70 0.67 0.52 0.35
0.06 0.06 0.04 0.04 0.04 0.05 0.06 0.07 0.06 0.05 0.03 0.02 0.01 0.00 0.00 0.00 0.00 0.00 0.00 0.00 0.00 0.00 0.00 0.00 0.00 0.01 0.01 0.03 0.06 0.10 0.18 0.30 0.44 0.54 0.52 0.44 0.44 0.53 0.56 0.56 0.58 0.64 0.67 0.58
0.01 0.01 0.01 0.02 0.04 0.06 0.09 0.08 0.07 0.06 0.05 0.04 0.03 0.03 0.00 0.00 0.00 0.00 0.00 0.00 0.00 0.00 0.00 0.00 0.00 0.00 0.00 0.01 0.03 0.05 0.13 0.14 0.17 0.22 0.25 0.25 0.25 0.36 0.50 0.52 0.52 0.53 0.62 0.68
0.00 0.00 0.00 0.01 0.02 0.03 0.04 0.03 0.04 0.05 0.07 0.07 0.05 0.06 0.02 0.00 0.00 0.00 0.00 0.00 0.00 0.00 0.00 0.00 0.00 0.00 0.00 0.00 0.01 0.02 0.02 0.01 0.02 0.07 0.13 0.13 0.12 0.21 0.35 0.39 0.39 0.46 0.58 0.61
0.00 0.00 0.00 0.00 0.00 0.01 0.01 0.02 0.02 0.03 0.03 0.03 0.02 0.04 0.03 0.01 0.01 0.00 0.00 0.00 0.00 0.00 0.00 0.00 0.00 0.00 0.00 0.00 0.00 0.00 0.00 0.00 0.00 0.03 0.06 0.06 0.06 0.15 0.21 0.30 0.40 0.54 0.64 0.60
0.00 0.00 0.00 0.00 0.00 0.00 0.00 0.02 0.05 0.06 0.06 0.03 0.01 0.02 0.02 0.01 0.00 0.00 0.00 0.00 0.00 0.00 0.00 0.00 0.00 0.00 0.00 0.00 0.00 0.00 0.00 0.00 0.00 0.00 0.01 0.02 0.05 0.12 0.12 0.18 0.36 0.51 0.63 0.62
0.00 0.00 0.00 0.00 0.00 0.00 0.00 0.01 0.04 0.06 0.07 0.04 0.02 0.01 0.00 0.00 0.00 0.00 0.00 0.00 0.00 0.00 0.00 0.00 0.00 0.00 0.00 0.01 0.00 0.00 0.00 0.00 0.00 0.00 0.01 0.01 0.03 0.10 0.11 0.11 0.25 0.41 0.44 0.45
0.00 0.00 0.00 0.00 0.00 0.00 0.00 0.00 0.00 0.02 0.02 0.02 0.02 0.01 0.01 0.00 0.00 0.00 0.00 0.00 0.01 0.01 0.00 0.00 0.00 0.00 0.00 0.01 0.01 0.01 0.01 0.02 0.01 0.02 0.03 0.02 0.03 0.05 0.08 0.09 0.10 0.17 0.25 0.27
0.02 0.02 0.01 0.00 0.00 0.00 0.01 0.01 0.01 0.03 0.07 0.06 0.02 0.02 0.03 0.03 0.03 0.02 0.02 0.02 0.02 0.02 0.02 0.01 0.00 0.01 0.01 0.01 0.01 0.02 0.02 0.04 0.05 0.12 0.10 0.04 0.02 0.02 0.04 0.08 0.12 0.12 0.18 0.23
0.08 0.08 0.03 0.01 0.02 0.04 0.06 0.06 0.07 0.08 0.06 0.09 0.11 0.09 0.07 0.09 0.11 0.10 0.08 0.05 0.05 0.06 0.05 0.04 0.02 0.02 0.02 0.02 0.02 0.03 0.02 0.03 0.07 0.18 0.21 0.12 0.04 0.04 0.09 0.11 0.11 0.18 0.26 0.30
0.16 0.22 0.13 0.04 0.06 0.10 0.16 0.21 0.24 0.31 0.27 0.17 0.21 0.17 0.08 0.10 0.11 0.08 0.07 0.04 0.04 0.05 0.06 0.06 0.04 0.02 0.01 0.01 0.01 0.02 0.01 0.01 0.04 0.11 0.12 0.05 0.03 0.05 0.11 0.15 0.10 0.11 0.15 0.16
0.25 0.38 0.30 0.14 0.20 0.29 0.31 0.31 0.35 0.37 0.40 0.34 0.27 0.16 0.08 0.08 0.08 0.07 0.05 0.03 0.02 0.02 0.02 0.02 0.02 0.01 0.00 0.00 0.00 0.00 0.01 0.01 0.01 0.02 0.02 0.01 0.01 0.04 0.07 0.09 0.08 0.06 0.07 0.09
0.23 0.38 0.41 0.29 0.29 0.33 0.28 0.20 0.21 0.33 0.43 0.33 0.25 0.15 0.12 0.12 0.09 0.06 0.03 0.02 0.02 0.03 0.03 0.02 0.01 0.01 0.00 0.00 0.00 0.01 0.02 0.02 0.01 0.00 0.00 0.01 0.01 0.01 0.03 0.04 0.03 0.02 0.03 0.03
0.16 0.17 0.18 0.15 0.12 0.12 0.11 0.09 0.10 0.18 0.28 0.31 0.23 0.16 0.11 0.09 0.07 0.04 0.03 0.02 0.02 0.02 0.02 0.02 0.01 0.02 0.01 0.01 0.01 0.02 0.04 0.06 0.04 0.02 0.01 0.01 0.01 0.01 0.02 0.04 0.01 0.01 0.01 0.01
0.23 0.18 0.07 0.03 0.04 0.04 0.06 0.08 0.10 0.12 0.16 0.19 0.20 0.18 0.09 0.06 0.06 0.05 0.04 0.02 0.02 0.02 0.02 0.01 0.01 0.01 0.03 0.04 0.02 0.03 0.06 0.11 0.09 0.05 0.04 0.04 0.04 0.04 0.04 0.03 0.02 0.02 0.02 0.02
0.10 0.12 0.09 0.05 0.04 0.06 0.18 0.23 0.22 0.18 0.14 0.13 0.12 0.09 0.05 0.06 0.06 0.04 0.04 0.04 0.04 0.04 0.03 0.02 0.02 0.02 0.05 0.06 0.06 0.08 0.12 0.16 0.14 0.11 0.11 0.11 0.12 0.09 0.07 0.04 0.03 0.04 0.04 0.04
0.10 0.13 0.16 0.10 0.09 0.20 0.40 0.31 0.23 0.25 0.13 0.06 0.05 0.07 0.06 0.06 0.05 0.03 0.02 0.01 0.02 0.04 0.04 0.03 0.03 0.03 0.05 0.08 0.11 0.17 0.21 0.21 0.21 0.22 0.22 0.20 0.22 0.20 0.15 0.10 0.10 0.10 0.09 0.09
0.17 0.22 0.25 0.21 0.20 0.31 0.42 0.26 0.22 0.25 0.21 0.08 0.04 0.04 0.04 0.04 0.03 0.01 0.01 0.01 0.02 0.02 0.02 0.03 0.03 0.03 0.03 0.04 0.05 0.08 0.11 0.14 0.16 0.23 0.28 0.30 0.31 0.29 0.23 0.18 0.25 0.30 0.25 0.19
0.30 0.32 0.32 0.31 0.36 0.46 0.34 0.12 0.12 0.21 0.32 0.10 0.03 0.01 0.01 0.01 0.01 0.01 0.01 0.01 0.01 0.01 0.01 0.01 0.01 0.01 0.01 0.01 0.01 0.02 0.04 0.08 0.12 0.18 0.22 0.26 0.29 0.31 0.34 0.42 0.48 0.47 0.41 0.31
0.19 0.25 0.31 0.38 0.56 0.56 0.33 0.12 0.13 0.24 0.34 0.15 0.04 0.01 0.00 0.00 0.00 0.00 0.01 0.01 0.01 0.00 0.00 0.00 0.00 0.00 0.00 0.00 0.00 0.00 0.01 0.02 0.02 0.04 0.09 0.17 0.28 0.34 0.43 0.54 0.55 0.52 0.44 0.34
0.18 0.28 0.38 0.50 0.66 0.73 0.38 0.19 0.21 0.18 0.12 0.09 0.03 0.01 0.00 0.00 0.00 0.00 0.01 0.00 0.00 0.00 0.00 0.00 0.00 0.00 0.00 0.00 0.00 0.00 0.00 0.00 0.01 0.03 0.07 0.12 0.20 0.28 0.42 0.50 0.49 0.46 0.42 0.38
0.18 0.33 0.45 0.50 0.55 0.47 0.27 0.16 0.11 0.08 0.08 0.03 0.01 0.00 0.00 0.00 0.00 0.00 0.00 0.00 0.00 0.00 0.00 0.00 0.00 0.00 0.00 0.00 0.00 0.00 0.00 0.00 0.00 0.01 0.02 0.06 0.11 0.22 0.36 0.39 0.38 0.41 0.41 0.39
0.08 0.11 0.18 0.20 0.15 0.14 0.11 0.08 0.04 0.03 0.04 0.01 0.00 0.00 0.00 0.00 0.00 0.00 0.00 0.00 0.00 0.00 0.00 0.00 0.00 0.00 0.00 0.00 0.00 0.00 0.00 0.00 0.00 0.00 0.00 0.01 0.02 0.05 0.10 0.15 0.19 0.25 0.30 0.31
0.09 0.10 0.17 0.20 0.10 0.05 0.04 0.04 0.02 0.02 0.02 0.01 0.00 0.00 0.00 0.00 0.00 0.00 0.00 0.00 0.00 0.00 0.00 0.00 0.00 0.00 0.00 0.00 0.00 0.00 0.00 0.00 0.00 0.00 0.00 0.01 0.02 0.02 0.03 0.05 0.09 0.12 0.15 0.18
0.05 0.12 0.16 0.20 0.12 0.06 0.04 0.03 0.02 0.02 0.01 0.01 0.00 0.00 0.00 0.00 0.00 0.00 0.00 0.00 0.00 0.00 0.00 0.00 0.00 0.00 0.00 0.00 0.00 0.00 0.00 0.00 0.00 0.00 0.00 0.00 0.00 0.01 0.01 0.01 0.02 0.04 0.06 0.09

GEFSCGP_prec_meanprecacc_030.txt.gz
Total_Precipitation_Accumulation
0.06 0.10 0.23 0.21 0.18 0.16 0.12 0.09 0.08 0.11 0.11 0.09 0.09 0.09 0.09 0.09 0.08 0.06 0.04 0.03 0.01 0.01 0.01 0.00 0.00 0.01 0.03 0.07 0.11 0.14 0.28 0.38 0.51 0.61 0.65 0.74 0.79 0.79 0.79 0.78 0.75 0.60 0.42 0.35
0.07 0.11 0.10 0.08 0.08 0.08 0.08 0.08 0.08 0.09 0.09 0.07 0.06 0.05 0.05 0.05 0.06 0.06 0.05 0.04 0.02 0.02 0.01 0.01 0.01 0.03 0.04 0.05 0.09 0.14 0.25 0.41 0.54 0.66 0.72 0.71 0.81 0.85 0.81 0.85 0.83 0.81 0.66 0.53
0.06 0.07 0.05 0.05 0.05 0.07 0.08 0.08 0.08 0.07 0.06 0.05 0.03 0.02 0.02 0.02 0.03 0.03 0.03 0.03 0.03 0.02 0.02 0.01 0.00 0.01 0.01 0.03 0.06 0.11 0.19 0.32 0.48 0.60 0.60 0.53 0.52 0.60 0.63 0.63 0.66 0.73 0.79 0.77
0.01 0.01 0.02 0.02 0.04 0.06 0.09 0.08 0.07 0.06 0.06 0.05 0.04 0.04 0.01 0.01 0.01 0.01 0.02 0.02 0.02 0.02 0.02 0.01 0.00 0.00 0.00 0.01 0.03 0.05 0.13 0.16 0.20 0.26 0.28 0.28 0.27 0.40 0.54 0.56 0.57 0.59 0.71 0.81
0.00 0.00 0.00 0.01 0.02 0.03 0.04 0.04 0.04 0.05 0.07 0.07 0.05 0.07 0.02 0.00 0.01 0.01 0.01 0.01 0.01 0.01 0.01 0.01 0.01 0.01 0.02 0.02 0.02 0.03 0.04 0.03 0.05 0.09 0.14 0.14 0.13 0.23 0.38 0.41 0.42 0.50 0.63 0.68
0.00 0.00 0.00 0.00 0.00 0.01 0.01 0.02 0.03 0.04 0.04 0.04 0.03 0.05 0.03 0.01 0.01 0.01 0.01 0.01 0.01 0.01 0.02 0.02 0.03 0.02 0.02 0.02 0.02 0.01 0.01 0.01 0.02 0.04 0.07 0.06 0.07 0.16 0.23 0.33 0.42 0.56 0.67 0.64
0.00 0.00 0.00 0.00 0.00 0.00 0.01 0.04 0.07 0.08 0.08 0.05 0.03 0.05 0.05 0.03 0.02 0.02 0.01 0.01 0.02 0.03 0.04 0.05 0.04 0.03 0.03 0.02 0.02 0.01 0.01 0.01 0.00 0.00 0.01 0.02 0.06 0.13 0.14 0.19 0.38 0.52 0.64 0.65
0.00 0.00 0.00 0.00 0.00 0.01 0.01 0.03 0.09 0.10 0.11 0.09 0.06 0.06 0.06 0.06 0.04 0.03 0.04 0.05 0.06 0.10 0.13 0.12 0.09 0.06 0.03 0.02 0.02 0.01 0.00 0.00 0.00 0.00 0.01 0.02 0.04 0.10 0.12 0.12 0.26 0.42 0.45 0.46
0.00 0.00 0.00 0.00 0.00 0.01 0.01 0.02 0.04 0.07 0.07 0.06 0.06 0.07 0.11 0.09 0.07 0.07 0.09 0.10 0.14 0.20 0.25 0.26 0.22 0.15 0.05 0.02 0.02 0.02 0.02 0.02 0.01 0.02 0.03 0.02 0.03 0.06 0.08 0.09 0.10 0.17 0.26 0.27
0.02 0.02 0.01 0.00 0.00 0.01 0.02 0.03 0.05 0.11 0.17 0.15 0.10 0.15 0.18 0.16 0.13 0.15 0.18 0.22 0.25 0.30 0.35 0.37 0.31 0.17 0.07 0.03 0.02 0.03 0.03 0.04 0.05 0.12 0.10 0.04 0.02 0.02 0.04 0.08 0.12 0.13 0.18 0.23
0.08 0.08 0.03 0.01 0.02 0.05 0.08 0.11 0.14 0.19 0.21 0.26 0.29 0.37 0.34 0.27 0.24 0.23 0.25 0.32 0.38 0.43 0.45 0.41 0.34 0.23 0.12 0.05 0.03 0.04 0.03 0.04 0.08 0.18 0.21 0.12 0.04 0.04 0.09 0.11 0.11 0.18 0.26 0.30
0.16 0.22 0.13 0.04 0.07 0.12 0.20 0.31 0.38 0.47 0.45 0.37 0.43 0.52 0.39 0.27 0.23 0.21 0.19 0.18 0.20 0.28 0.29 0.30 0.27 0.19 0.10 0.05 0.03 0.04 0.05 0.05 0.07 0.12 0.14 0.07 0.04 0.05 0.11 0.15 0.10 0.11 0.15 0.16
0.25 0.39 0.30 0.14 0.22 0.30 0.35 0.42 0.52 0.58 0.63 0.55 0.47 0.45 0.28 0.19 0.18 0.17 0.15 0.13 0.13 0.13 0.14 0.14 0.15 0.16 0.09 0.06 0.05 0.06 0.09 0.10 0.08 0.06 0.06 0.04 0.03 0.05 0.08 0.10 0.09 0.06 0.07 0.09
0.23 0.38 0.43 0.31 0.32 0.35 0.33 0.31 0.34 0.49 0.63 0.54 0.43 0.31 0.22 0.19 0.14 0.16 0.15 0.14 0.14 0.12 0.11 0.09 0.06 0.08 0.07 0.07 0.08 0.10 0.16 0.22 0.20 0.16 0.11 0.08 0.07 0.07 0.07 0.07 0.05 0.04 0.04 0.05
0.16 0.17 0.19 0.16 0.15 0.19 0.24 0.24 0.27 0.35 0.44 0.48 0.37 0.24 0.16 0.14 0.14 0.17 0.19 0.15 0.11 0.09 0.09 0.07 0.06 0.07 0.08 0.09 0.11 0.14 0.22 0.31 0.32 0.30 0.24 0.18 0.20 0.17 0.13 0.11 0.07 0.06 0.05 0.05
0.23 0.18 0.07 0.05 0.08 0.12 0.19 0.28 0.34 0.34 0.35 0.32 0.30 0.27 0.15 0.12 0.15 0.15 0.16 0.14 0.15 0.12 0.11 0.10 0.11 0.11 0.12 0.17 0.21 0.19 0.29 0.38 0.43 0.44 0.42 0.38 0.36 0.28 0.23 0.17 0.12 0.09 0.08 0.08
0.10 0.12 0.09 0.06 0.07 0.14 0.32 0.41 0.42 0.37 0.31 0.24 0.23 0.20 0.12 0.13 0.10 0.07 0.10 0.13 0.17 0.16 0.15 0.16 0.17 0.17 0.18 0.24 0.25 0.26 0.33 0.42 0.45 0.47 0.48 0.48 0.44 0.31 0.24 0.17 0.14 0.13 0.12 0.13
0.10 0.13 0.17 0.11 0.12 0.32 0.59 0.48 0.39 0.39 0.27 0.13 0.10 0.12 0.10 0.09 0.07 0.04 0.05 0.06 0.08 0.11 0.12 0.18 0.17 0.15 0.17 0.22 0.26 0.35 0.38 0.38 0.38 0.41 0.43 0.41 0.40 0.34 0.25 0.18 0.17 0.17 0.17 0.18
0.17 0.22 0.25 0.22 0.22 0.42 0.57 0.37 0.33 0.36 0.30 0.13 0.07 0.07 0.05 0.05 0.04 0.02 0.02 0.04 0.06 0.05 0.06 0.09 0.09 0.09 0.09 0.10 0.10 0.13 0.16 0.19 0.22 0.29 0.35 0.38 0.37 0.33 0.27 0.21 0.27 0.33 0.29 0.26
0.30 0.32 0.32 0.31 0.37 0.49 0.39 0.15 0.15 0.27 0.37 0.13 0.05 0.03 0.02 0.02 0.02 0.01 0.02 0.04 0.03 0.02 0.02 0.03 0.03 0.03 0.02 0.02 0.02 0.03 0.05 0.09 0.13 0.19 0.24 0.27 0.30 0.33 0.36 0.43 0.50 0.50 0.45 0.37
0.19 0.25 0.31 0.39 0.56 0.57 0.33 0.13 0.15 0.27 0.39 0.18 0.05 0.02 0.01 0.01 0.00 0.00 0.02 0.03 0.02 0.01 0.00 0.00 0.01 0.00 0.00 0.00 0.00 0.00 0.01 0.02 0.02 0.04 0.09 0.18 0.28 0.34 0.43 0.55 0.56 0.54 0.48 0.39
0.18 0.28 0.38 0.50 0.66 0.74 0.38 0.19 0.21 0.19 0.13 0.10 0.04 0.01 0.01 0.00 0.00 0.00 0.01 0.01 0.01 0.01 0.00 0.00 0.00 0.00 0.00 0.00 0.00 0.00 0.00 0.00 0.01 0.03 0.07 0.12 0.20 0.29 0.42 0.50 0.49 0.48 0.45 0.42
0.18 0.33 0.45 0.50 0.56 0.47 0.28 0.16 0.11 0.08 0.08 0.03 0.01 0.01 0.00 0.00 0.00 0.00 0.01 0.01 0.01 0.01 0.00 0.00 0.00 0.00 0.00 0.00 0.00 0.00 0.00 0.00 0.00 0.01 0.02 0.06 0.11 0.22 0.36 0.39 0.38 0.42 0.43 0.42
0.08 0.11 0.18 0.20 0.15 0.14 0.11 0.08 0.04 0.03 0.04 0.01 0.00 0.00 0.00 0.00 0.00 0.00 0.00 0.01 0.00 0.00 0.00 0.00 0.00 0.00 0.00 0.00 0.00 0.00 0.00 0.00 0.00 0.00 0.00 0.01 0.02 0.05 0.10 0.15 0.19 0.26 0.31 0.32
0.09 0.10 0.17 0.20 0.10 0.05 0.04 0.04 0.02 0.02 0.02 0.01 0.00 0.00 0.00 0.00 0.00 0.00 0.00 0.00 0.00 0.00 0.00 0.00 0.00 0.00 0.00 0.00 0.00 0.00 0.00 0.00 0.00 0.00 0.00 0.01 0.02 0.02 0.03 0.05 0.09 0.12 0.15 0.18
0.05 0.12 0.16 0.20 0.12 0.06 0.04 0.03 0.02 0.02 0.01 0.01 0.00 0.00 0.00 0.00 0.00 0.00 0.00 0.00 0.00 0.00 0.00 0.00 0.00 0.00 0.00 0.00 0.00 0.00 0.00 0.00 0.00 0.00 0.00 0.00 0.00 0.01 0.01 0.01 0.02 0.04 0.06 0.09

GEFSCGP_prec_meanprecacc_036.txt.gz
Total_Precipitation_Accumulation
0.06 0.11 0.23 0.21 0.18 0.17 0.13 0.10 0.09 0.11 0.11 0.09 0.09 0.09 0.10 0.11 0.11 0.09 0.08 0.06 0.04 0.03 0.03 0.02 0.01 0.02 0.04 0.07 0.11 0.14 0.28 0.39 0.51 0.61 0.66 0.76 0.82 0.84 0.83 0.82 0.82 0.68 0.51 0.47
0.08 0.11 0.10 0.08 0.08 0.09 0.09 0.09 0.09 0.09 0.09 0.07 0.06 0.05 0.05 0.06 0.07 0.07 0.07 0.06 0.04 0.04 0.03 0.02 0.02 0.04 0.04 0.05 0.09 0.14 0.25 0.42 0.56 0.69 0.76 0.78 0.89 0.92 0.88 0.92 0.90 0.90 0.75 0.65
0.06 0.07 0.05 0.05 0.06 0.07 0.08 0.08 0.08 0.07 0.06 0.05 0.03 0.02 0.02 0.02 0.03 0.03 0.04 0.04 0.04 0.03 0.03 0.02 0.01 0.02 0.02 0.03 0.07 0.13 0.23 0.39 0.56 0.70 0.71 0.65 0.63 0.70 0.73 0.71 0.76 0.83 0.90 0.88
0.01 0.01 0.02 0.02 0.04 0.06 0.09 0.08 0.07 0.06 0.06 0.05 0.04 0.04 0.01 0.01 0.01 0.01 0.02 0.02 0.03 0.03 0.02 0.02 0.01 0.01 0.02 0.03 0.06 0.11 0.23 0.32 0.40 0.47 0.48 0.46 0.42 0.52 0.63 0.65 0.66 0.68 0.79 0.89
0.00 0.00 0.00 0.01 0.02 0.03 0.04 0.04 0.05 0.06 0.07 0.07 0.05 0.07 0.02 0.00 0.01 0.01 0.01 0.01 0.02 0.02 0.02 0.03 0.04 0.04 0.06 0.06 0.09 0.14 0.23 0.29 0.32 0.38 0.41 0.38 0.30 0.34 0.46 0.48 0.49 0.56 0.69 0.74
0.00 0.00 0.00 0.00 0.00 0.01 0.01 0.02 0.03 0.04 0.04 0.04 0.03 0.05 0.04 0.01 0.01 0.01 0.01 0.01 0.02 0.03 0.05 0.07 0.10 0.10 0.11 0.12 0.14 0.19 0.29 0.39 0.40 0.34 0.29 0.22 0.19 0.24 0.29 0.37 0.47 0.60 0.71 0.68
0.00 0.00 0.00 0.00 0.00 0.00 0.01 0.04 0.08 0.08 0.08 0.06 0.03 0.06 0.05 0.03 0.02 0.02 0.02 0.02 0.05 0.08 0.13 0.18 0.21 0.21 0.19 0.21 0.23 0.27 0.30 0.30 0.25 0.18 0.14 0.13 0.14 0.18 0.17 0.22 0.40 0.53 0.66 0.67
0.00 0.00 0.00 0.00 0.00 0.01 0.01 0.04 0.10 0.11 0.11 0.09 0.07 0.09 0.09 0.08 0.05 0.05 0.05 0.07 0.10 0.16 0.25 0.34 0.39 0.39 0.32 0.29 0.28 0.24 0.20 0.16 0.13 0.10 0.08 0.07 0.08 0.14 0.13 0.13 0.27 0.42 0.46 0.47
0.00 0.00 0.00 0.00 0.00 0.01 0.01 0.02 0.05 0.09 0.09 0.08 0.08 0.11 0.14 0.12 0.09 0.10 0.12 0.13 0.18 0.27 0.36 0.48 0.55 0.56 0.45 0.33 0.25 0.21 0.17 0.13 0.10 0.09 0.08 0.06 0.06 0.08 0.10 0.10 0.11 0.17 0.26 0.27
0.02 0.02 0.01 0.00 0.00 0.01 0.02 0.04 0.07 0.15 0.22 0.19 0.16 0.23 0.23 0.20 0.17 0.18 0.22 0.26 0.31 0.40 0.47 0.57 0.61 0.56 0.48 0.40 0.31 0.21 0.14 0.14 0.13 0.19 0.15 0.08 0.05 0.04 0.05 0.08 0.12 0.13 0.18 0.23
0.08 0.08 0.03 0.01 0.02 0.05 0.09 0.12 0.17 0.25 0.28 0.34 0.37 0.46 0.40 0.32 0.31 0.29 0.29 0.37 0.44 0.49 0.54 0.57 0.58 0.55 0.41 0.29 0.25 0.19 0.13 0.13 0.16 0.25 0.26 0.15 0.07 0.07 0.11 0.11 0.12 0.18 0.26 0.30
0.16 0.22 0.13 0.04 0.08 0.13 0.22 0.33 0.41 0.53 0.53 0.46 0.53 0.62 0.48 0.35 0.33 0.31 0.27 0.23 0.26 0.35 0.38 0.42 0.43 0.36 0.27 0.20 0.16 0.16 0.16 0.15 0.16 0.21 0.20 0.12 0.08 0.09 0.14 0.17 0.11 0.12 0.15 0.17
0.25 0.39 0.30 0.14 0.22 0.31 0.37 0.46 0.57 0.67 0.72 0.64 0.60 0.63 0.45 0.27 0.26 0.27 0.26 0.23 0.21 0.23 0.23 0.22 0.24 0.24 0.17 0.15 0.15 0.16 0.21 0.24 0.24 0.22 0.19 0.13 0.09 0.11 0.13 0.13 0.11 0.08 0.08 0.10
0.23 0.38 0.43 0.33 0.35 0.40 0.40 0.37 0.41 0.60 0.76 0.70 0.67 0.56 0.36 0.28 0.23 0.25 0.28 0.29 0.26 0.22 0.21 0.18 0.14 0.14 0.14 0.14 0.15 0.18 0.28 0.40 0.41 0.39 0.33 0.26 0.20 0.18 0.16 0.13 0.10 0.08 0.07 0.07
0.16 0.17 0.20 0.18 0.18 0.23 0.29 0.32 0.40 0.51 0.64 0.77 0.64 0.42 0.28 0.25 0.23 0.25 0.33 0.27 0.20 0.18 0.16 0.14 0.13 0.14 0.15 0.15 0.17 0.20 0.31 0.47 0.54 0.56 0.51 0.43 0.40 0.31 0.23 0.19 0.14 0.12 0.09 0.08
0.23 0.18 0.08 0.06 0.10 0.15 0.26 0.39 0.51 0.56 0.60 0.57 0.46 0.39 0.24 0.22 0.20 0.19 0.22 0.20 0.20 0.20 0.17 0.14 0.16 0.16 0.18 0.23 0.27 0.25 0.36 0.50 0.59 0.63 0.63 0.60 0.52 0.39 0.32 0.25 0.19 0.15 0.13 0.13
0.10 0.12 0.09 0.07 0.09 0.17 0.39 0.51 0.56 0.54 0.48 0.38 0.33 0.28 0.19 0.19 0.12 0.09 0.12 0.16 0.21 0.23 0.20 0.18 0.18 0.19 0.22 0.29 0.31 0.31 0.39 0.50 0.54 0.58 0.60 0.60 0.53 0.39 0.32 0.25 0.19 0.18 0.16 0.17
0.10 0.13 0.17 0.12 0.13 0.34 0.61 0.51 0.44 0.46 0.34 0.20 0.16 0.16 0.15 0.11 0.07 0.05 0.05 0.07 0.09 0.13 0.15 0.20 0.18 0.17 0.19 0.24 0.29 0.37 0.40 0.40 0.41 0.45 0.48 0.46 0.45 0.39 0.30 0.23 0.21 0.21 0.20 0.21
0.17 0.22 0.25 0.22 0.23 0.42 0.57 0.38 0.34 0.38 0.32 0.14 0.09 0.09 0.08 0.06 0.05 0.02 0.02 0.04 0.06 0.05 0.07 0.09 0.09 0.09 0.10 0.10 0.11 0.14 0.17 0.19 0.23 0.30 0.36 0.39 0.39 0.35 0.29 0.24 0.30 0.35 0.31 0.28
0.30 0.32 0.32 0.31 0.37 0.50 0.39 0.15 0.15 0.27 0.38 0.13 0.05 0.04 0.03 0.03 0.03 0.01 0.02 0.04 0.03 0.02 0.02 0.03 0.03 0.03 0.02 0.02 0.02 0.03 0.05 0.09 0.13 0.19 0.24 0.27 0.30 0.33 0.37 0.44 0.51 0.51 0.46 0.38
0.19 0.25 0.31 0.39 0.56 0.57 0.33 0.13 0.15 0.27 0.39 0.18 0.05 0.02 0.01 0.01 0.00 0.00 0.02 0.03 0.02 0.01 0.00 0.00 0.01 0.00 0.00 0.00 0.00 0.00 0.01 0.02 0.02 0.04 0.09 0.18 0.28 0.34 0.44 0.55 0.57 0.55 0.48 0.39
0.18 0.28 0.38 0.50 0.66 0.74 0.38 0.19 0.21 0.19 0.13 0.10 0.04 0.01 0.01 0.00 0.00 0.00 0.01 0.01 0.01 0.01 0.00 0.00 0.00 0.00 0.00 0.00 0.00 0.00 0.00 0.00 0.01 0.03 0.07 0.12 0.20 0.29 0.42 0.51 0.49 0.48 0.45 0.42
0.18 0.33 0.45 0.50 0.56 0.47 0.28 0.16 0.11 0.08 0.08 0.03 0.01 0.01 0.00 0.00 0.00 0.00 0.01 0.01 0.01 0.01 0.00 0.00 0.00 0.00 0.00 0.00 0.00 0.00 0.00 0.00 0.00 0.01 0.02 0.06 0.11 0.22 0.36 0.39 0.38 0.42 0.44 0.42
0.08 0.11 0.18 0.20 0.15 0.14 0.11 0.08 0.04 0.03 0.04 0.01 0.00 0.00 0.00 0.00 0.00 0.00 0.00 0.01 0.00 0.00 0.00 0.00 0.00 0.00 0.00 0.00 0.00 0.00 0.00 0.00 0.00 0.00 0.00 0.01 0.02 0.05 0.10 0.15 0.19 0.26 0.31 0.32
0.09 0.10 0.17 0.20 0.10 0.05 0.04 0.04 0.02 0.02 0.02 0.01 0.00 0.00 0.00 0.00 0.00 0.00 0.00 0.00 0.00 0.00 0.00 0.00 0.00 0.00 0.00 0.00 0.00 0.00 0.00 0.00 0.00 0.00 0.00 0.01 0.02 0.02 0.03 0.05 0.09 0.12 0.15 0.18
0.05 0.12 0.16 0.20 0.12 0.06 0.04 0.03 0.02 0.02 0.01 0.01 0.00 0.00 0.00 0.00 0.00 0.00 0.00 0.00 0.00 0.00 0.00 0.00 0.00 0.00 0.00 0.00 0.00 0.00 0.00 0.00 0.00 0.00 0.00 0.00 0.00 0.01 0.01 0.01 0.02 0.04 0.06 0.09

GEFSCGP_prec_meanprecacc_042.txt.gz
Total_Precipitation_Accumulation
0.06 0.11 0.23 0.21 0.18 0.17 0.13 0.10 0.09 0.11 0.11 0.09 0.09 0.09 0.10 0.11 0.11 0.10 0.08 0.06 0.05 0.04 0.05 0.04 0.05 0.06 0.08 0.10 0.13 0.15 0.28 0.39 0.52 0.62 0.69 0.80 0.87 0.89 0.86 0.85 0.84 0.70 0.55 0.56
0.08 0.11 0.10 0.08 0.08 0.09 0.09 0.09 0.09 0.09 0.09 0.07 0.06 0.05 0.05 0.06 0.07 0.07 0.07 0.06 0.05 0.04 0.04 0.04 0.05 0.07 0.08 0.09 0.11 0.15 0.26 0.43 0.59 0.74 0.88 0.93 1.06 1.07 1.01 1.04 0.97 0.96 0.83 0.76
0.06 0.07 0.05 0.05 0.06 0.08 0.08 0.09 0.09 0.08 0.07 0.05 0.03 0.02 0.02 0.02 0.03 0.03 0.04 0.04 0.04 0.04 0.04 0.03 0.03 0.04 0.05 0.06 0.09 0.14 0.23 0.41 0.64 0.86 0.98 0.98 0.99 1.06 1.04 0.96 0.93 0.95 1.01 1.03
0.01 0.01 0.02 0.02 0.04 0.06 0.10 0.08 0.08 0.07 0.07 0.05 0.04 0.04 0.01 0.01 0.01 0.01 0.02 0.02 0.03 0.03 0.02 0.02 0.02 0.02 0.04 0.06 0.08 0.12 0.25 0.38 0.55 0.73 0.88 0.92 0.95 1.08 1.10 0.99 0.87 0.83 0.90 1.01
0.00 0.00 0.00 0.01 0.02 0.03 0.04 0.04 0.05 0.06 0.08 0.07 0.05 0.07 0.03 0.00 0.01 0.01 0.01 0.01 0.02 0.02 0.03 0.03 0.04 0.05 0.07 0.08 0.10 0.17 0.29 0.41 0.56 0.71 0.85 0.94 0.93 0.94 0.94 0.83 0.73 0.71 0.79 0.82
0.00 0.00 0.00 0.00 0.00 0.01 0.01 0.02 0.04 0.04 0.05 0.05 0.03 0.06 0.05 0.02 0.01 0.01 0.01 0.01 0.02 0.03 0.05 0.08 0.12 0.12 0.12 0.14 0.16 0.24 0.37 0.55 0.68 0.71 0.74 0.74 0.76 0.79 0.73 0.70 0.69 0.75 0.79 0.75
0.00 0.00 0.00 0.00 0.00 0.00 0.01 0.05 0.09 0.09 0.10 0.07 0.05 0.08 0.08 0.05 0.03 0.02 0.02 0.02 0.05 0.08 0.14 0.20 0.24 0.26 0.25 0.27 0.32 0.40 0.46 0.53 0.56 0.53 0.52 0.53 0.57 0.60 0.53 0.51 0.60 0.65 0.74 0.72
0.00 0.00 0.00 0.00 0.00 0.01 0.01 0.04 0.11 0.13 0.14 0.12 0.12 0.14 0.13 0.10 0.06 0.05 0.06 0.07 0.11 0.17 0.26 0.36 0.44 0.47 0.44 0.42 0.42 0.38 0.36 0.35 0.34 0.33 0.34 0.34 0.35 0.39 0.36 0.30 0.38 0.49 0.51 0.50
0.00 0.00 0.00 0.00 0.00 0.01 0.01 0.03 0.06 0.12 0.12 0.13 0.14 0.19 0.20 0.14 0.10 0.11 0.13 0.14 0.19 0.30 0.40 0.52 0.61 0.65 0.62 0.51 0.40 0.35 0.29 0.28 0.26 0.24 0.24 0.24 0.23 0.23 0.22 0.19 0.17 0.21 0.29 0.29
0.02 0.02 0.01 0.00 0.01 0.01 0.02 0.04 0.09 0.18 0.27 0.25 0.23 0.31 0.32 0.25 0.20 0.21 0.25 0.29 0.34 0.46 0.54 0.64 0.69 0.67 0.63 0.63 0.53 0.39 0.27 0.26 0.28 0.35 0.32 0.24 0.19 0.16 0.15 0.15 0.17 0.15 0.19 0.24
0.08 0.08 0.03 0.02 0.03 0.06 0.09 0.13 0.19 0.28 0.34 0.43 0.50 0.58 0.50 0.40 0.38 0.36 0.36 0.46 0.53 0.59 0.65 0.67 0.72 0.68 0.54 0.47 0.45 0.40 0.30 0.28 0.30 0.40 0.41 0.28 0.18 0.15 0.18 0.17 0.15 0.19 0.26 0.30
0.16 0.22 0.13 0.04 0.08 0.13 0.22 0.34 0.43 0.57 0.58 0.54 0.73 0.84 0.63 0.49 0.48 0.46 0.40 0.36 0.41 0.52 0.54 0.57 0.64 0.59 0.44 0.37 0.30 0.30 0.30 0.29 0.30 0.34 0.33 0.24 0.17 0.16 0.19 0.21 0.13 0.12 0.16 0.17
0.25 0.39 0.30 0.14 0.23 0.32 0.39 0.48 0.60 0.70 0.78 0.76 0.81 0.88 0.68 0.47 0.42 0.42 0.45 0.44 0.44 0.47 0.46 0.43 0.44 0.47 0.42 0.37 0.28 0.31 0.36 0.37 0.38 0.35 0.31 0.24 0.18 0.19 0.19 0.17 0.13 0.09 0.09 0.11
0.23 0.38 0.43 0.34 0.36 0.43 0.42 0.39 0.44 0.64 0.85 0.86 0.88 0.80 0.57 0.48 0.43 0.44 0.49 0.55 0.51 0.39 0.36 0.34 0.29 0.32 0.34 0.32 0.29 0.32 0.42 0.52 0.53 0.53 0.46 0.37 0.28 0.25 0.22 0.18 0.13 0.10 0.08 0.08
0.16 0.17 0.20 0.18 0.19 0.24 0.31 0.34 0.42 0.55 0.72 0.92 0.79 0.57 0.45 0.43 0.41 0.41 0.48 0.41 0.35 0.29 0.27 0.25 0.23 0.25 0.26 0.26 0.30 0.33 0.45 0.59 0.67 0.69 0.63 0.52 0.47 0.37 0.28 0.23 0.17 0.14 0.11 0.11
0.23 0.18 0.08 0.06 0.10 0.16 0.28 0.41 0.54 0.60 0.66 0.66 0.56 0.51 0.37 0.32 0.29 0.28 0.32 0.31 0.30 0.27 0.23 0.20 0.21 0.20 0.22 0.27 0.32 0.31 0.43 0.56 0.65 0.68 0.68 0.65 0.57 0.44 0.37 0.29 0.21 0.17 0.15 0.15
0.10 0.12 0.09 0.07 0.09 0.17 0.40 0.53 0.59 0.58 0.53 0.44 0.40 0.34 0.24 0.22 0.15 0.14 0.18 0.22 0.28 0.27 0.23 0.20 0.20 0.20 0.23 0.30 0.31 0.31 0.40 0.51 0.55 0.59 0.61 0.61 0.55 0.40 0.34 0.26 0.21 0.19 0.18 0.19
0.10 0.13 0.17 0.12 0.13 0.34 0.61 0.51 0.45 0.48 0.37 0.22 0.19 0.19 0.18 0.13 0.10 0.07 0.07 0.10 0.13 0.16 0.16 0.20 0.18 0.17 0.19 0.24 0.29 0.37 0.40 0.40 0.41 0.45 0.48 0.46 0.45 0.39 0.31 0.23 0.23 0.22 0.21 0.23
0.17 0.22 0.25 0.22 0.23 0.42 0.57 0.38 0.34 0.39 0.33 0.16 0.11 0.11 0.09 0.07 0.05 0.02 0.02 0.05 0.06 0.05 0.07 0.09 0.09 0.09 0.10 0.10 0.11 0.14 0.17 0.19 0.23 0.30 0.36 0.39 0.39 0.35 0.30 0.24 0.30 0.35 0.32 0.28
0.30 0.32 0.32 0.31 0.37 0.50 0.39 0.15 0.15 0.27 0.38 0.13 0.06 0.05 0.03 0.03 0.03 0.01 0.02 0.04 0.03 0.02 0.02 0.03 0.03 0.03 0.02 0.02 0.02 0.03 0.05 0.09 0.13 0.19 0.24 0.27 0.30 0.33 0.37 0.45 0.51 0.51 0.46 0.38
0.19 0.25 0.31 0.39 0.56 0.57 0.33 0.13 0.15 0.27 0.39 0.18 0.05 0.02 0.01 0.01 0.00 0.00 0.02 0.03 0.02 0.01 0.00 0.00 0.01 0.00 0.00 0.00 0.00 0.00 0.01 0.02 0.02 0.04 0.09 0.18 0.28 0.34 0.44 0.55 0.57 0.55 0.48 0.39
0.18 0.28 0.38 0.50 0.66 0.74 0.38 0.19 0.21 0.19 0.13 0.10 0.04 0.01 0.01 0.00 0.00 0.00 0.01 0.01 0.01 0.01 0.00 0.00 0.00 0.00 0.00 0.00 0.00 0.00 0.00 0.00 0.01 0.03 0.07 0.12 0.20 0.29 0.42 0.51 0.49 0.48 0.45 0.42
0.18 0.33 0.45 0.50 0.56 0.47 0.28 0.16 0.11 0.08 0.08 0.03 0.01 0.01 0.00 0.00 0.00 0.00 0.01 0.01 0.01 0.01 0.00 0.00 0.00 0.00 0.00 0.00 0.00 0.00 0.00 0.00 0.00 0.01 0.02 0.06 0.11 0.22 0.36 0.39 0.38 0.42 0.44 0.42
0.08 0.11 0.18 0.20 0.15 0.14 0.11 0.08 0.04 0.03 0.04 0.01 0.00 0.00 0.00 0.00 0.00 0.00 0.00 0.01 0.00 0.00 0.00 0.00 0.00 0.00 0.00 0.00 0.00 0.00 0.00 0.00 0.00 0.00 0.00 0.01 0.02 0.05 0.10 0.15 0.19 0.26 0.31 0.32
0.09 0.10 0.17 0.20 0.10 0.05 0.04 0.04 0.02 0.02 0.02 0.01 0.00 0.00 0.00 0.00 0.00 0.00 0.00 0.00 0.00 0.00 0.00 0.00 0.00 0.00 0.00 0.00 0.00 0.00 0.00 0.00 0.00 0.00 0.00 0.01 0.02 0.02 0.03 0.05 0.09 0.12 0.15 0.19
0.05 0.12 0.16 0.20 0.12 0.06 0.04 0.03 0.02 0.02 0.01 0.01 0.00 0.00 0.00 0.00 0.00 0.00 0.00 0.00 0.00 0.00 0.00 0.00 0.00 0.00 0.00 0.00 0.00 0.00 0.00 0.00 0.00 0.00 0.00 0.00 0.00 0.01 0.01 0.02 0.02 0.04 0.06 0.09

GEFSCGP_prec_meanprecacc_048.txt.gz
Total_Precipitation_Accumulation
0.06 0.11 0.23 0.21 0.19 0.17 0.14 0.10 0.10 0.13 0.12 0.10 0.10 0.10 0.10 0.11 0.11 0.10 0.08 0.07 0.05 0.05 0.06 0.06 0.06 0.07 0.09 0.12 0.14 0.17 0.30 0.41 0.54 0.64 0.72 0.86 0.95 0.97 0.95 0.94 0.92 0.78 0.62 0.62
0.08 0.11 0.10 0.08 0.08 0.09 0.09 0.10 0.09 0.10 0.09 0.08 0.07 0.06 0.06 0.06 0.07 0.07 0.07 0.06 0.05 0.04 0.04 0.04 0.05 0.08 0.09 0.09 0.12 0.17 0.27 0.46 0.63 0.82 0.98 1.06 1.18 1.21 1.17 1.18 1.12 1.09 0.97 0.91
0.06 0.07 0.05 0.05 0.06 0.08 0.08 0.09 0.09 0.08 0.07 0.05 0.04 0.04 0.03 0.03 0.04 0.04 0.04 0.04 0.04 0.04 0.04 0.03 0.03 0.04 0.05 0.07 0.09 0.15 0.24 0.42 0.67 0.94 1.11 1.16 1.23 1.37 1.39 1.28 1.20 1.18 1.21 1.23
0.01 0.01 0.02 0.02 0.04 0.06 0.10 0.08 0.08 0.07 0.07 0.06 0.05 0.07 0.05 0.05 0.05 0.04 0.03 0.04 0.03 0.03 0.02 0.02 0.02 0.02 0.04 0.06 0.09 0.12 0.26 0.39 0.58 0.79 1.00 1.13 1.25 1.46 1.48 1.35 1.21 1.13 1.17 1.24
0.00 0.00 0.00 0.01 0.02 0.03 0.05 0.04 0.05 0.06 0.08 0.07 0.05 0.09 0.09 0.06 0.09 0.08 0.06 0.05 0.03 0.02 0.03 0.03 0.04 0.05 0.07 0.08 0.11 0.17 0.30 0.43 0.61 0.81 1.02 1.21 1.29 1.34 1.37 1.24 1.11 1.03 1.05 1.06
0.00 0.00 0.00 0.00 0.00 0.01 0.01 0.02 0.04 0.04 0.05 0.05 0.04 0.09 0.15 0.13 0.10 0.08 0.07 0.06 0.04 0.03 0.06 0.08 0.12 0.13 0.13 0.15 0.17 0.25 0.39 0.58 0.73 0.82 0.92 0.98 1.08 1.22 1.23 1.20 1.13 1.11 1.07 0.95
0.00 0.00 0.00 0.00 0.00 0.00 0.01 0.05 0.09 0.10 0.12 0.10 0.07 0.15 0.23 0.17 0.12 0.11 0.10 0.08 0.07 0.09 0.15 0.20 0.25 0.27 0.27 0.29 0.34 0.42 0.49 0.57 0.61 0.61 0.66 0.75 0.83 0.91 0.93 0.96 1.05 1.08 1.09 1.00
0.00 0.00 0.00 0.00 0.00 0.01 0.01 0.04 0.12 0.15 0.17 0.17 0.18 0.30 0.34 0.27 0.19 0.15 0.12 0.10 0.12 0.18 0.27 0.38 0.47 0.51 0.48 0.45 0.46 0.42 0.41 0.42 0.43 0.45 0.49 0.54 0.57 0.61 0.62 0.60 0.69 0.79 0.78 0.72
0.00 0.00 0.00 0.00 0.00 0.01 0.02 0.03 0.06 0.14 0.14 0.17 0.25 0.39 0.39 0.27 0.19 0.16 0.16 0.16 0.21 0.32 0.44 0.57 0.68 0.72 0.69 0.58 0.47 0.43 0.39 0.39 0.36 0.37 0.40 0.42 0.43 0.44 0.41 0.38 0.35 0.38 0.42 0.41
0.02 0.02 0.01 0.00 0.01 0.01 0.02 0.04 0.10 0.21 0.31 0.32 0.33 0.44 0.47 0.37 0.26 0.25 0.28 0.32 0.40 0.52 0.60 0.71 0.79 0.77 0.76 0.77 0.65 0.50 0.40 0.39 0.41 0.48 0.44 0.37 0.32 0.29 0.27 0.27 0.30 0.28 0.32 0.35
0.08 0.08 0.03 0.02 0.03 0.06 0.09 0.13 0.20 0.31 0.39 0.51 0.63 0.75 0.61 0.47 0.45 0.42 0.42 0.54 0.64 0.70 0.74 0.77 0.84 0.81 0.68 0.64 0.61 0.55 0.45 0.42 0.42 0.50 0.50 0.38 0.29 0.28 0.30 0.28 0.27 0.31 0.38 0.40
0.16 0.22 0.13 0.04 0.08 0.13 0.23 0.35 0.44 0.61 0.63 0.60 0.84 1.00 0.73 0.57 0.58 0.58 0.54 0.53 0.55 0.67 0.75 0.79 0.85 0.78 0.63 0.55 0.46 0.48 0.49 0.47 0.48 0.50 0.48 0.40 0.33 0.33 0.39 0.38 0.27 0.26 0.28 0.26
0.25 0.39 0.30 0.15 0.23 0.32 0.39 0.48 0.60 0.72 0.83 0.82 0.90 1.01 0.77 0.55 0.52 0.54 0.63 0.63 0.60 0.64 0.65 0.65 0.65 0.70 0.65 0.58 0.47 0.50 0.55 0.56 0.57 0.56 0.53 0.47 0.40 0.38 0.38 0.33 0.26 0.24 0.21 0.19
0.23 0.38 0.43 0.34 0.36 0.43 0.42 0.39 0.45 0.66 0.89 0.91 0.95 0.91 0.68 0.57 0.52 0.54 0.61 0.68 0.63 0.54 0.49 0.47 0.43 0.47 0.50 0.50 0.51 0.54 0.65 0.73 0.75 0.74 0.66 0.59 0.50 0.44 0.39 0.31 0.24 0.20 0.17 0.16
0.16 0.17 0.20 0.18 0.19 0.25 0.32 0.34 0.43 0.56 0.74 0.96 0.86 0.65 0.52 0.50 0.47 0.48 0.54 0.48 0.42 0.37 0.35 0.34 0.31 0.31 0.33 0.35 0.43 0.49 0.62 0.74 0.81 0.83 0.76 0.67 0.63 0.52 0.41 0.35 0.26 0.21 0.16 0.15
0.23 0.18 0.08 0.07 0.10 0.16 0.28 0.41 0.54 0.60 0.67 0.69 0.60 0.55 0.41 0.35 0.32 0.31 0.36 0.36 0.35 0.30 0.26 0.23 0.23 0.21 0.23 0.29 0.35 0.35 0.46 0.61 0.70 0.74 0.73 0.71 0.65 0.52 0.44 0.35 0.26 0.21 0.18 0.18
0.10 0.12 0.09 0.07 0.09 0.17 0.40 0.53 0.60 0.59 0.54 0.45 0.42 0.36 0.25 0.23 0.16 0.16 0.21 0.24 0.29 0.28 0.23 0.20 0.20 0.21 0.23 0.30 0.31 0.32 0.41 0.52 0.56 0.60 0.62 0.62 0.56 0.43 0.38 0.29 0.24 0.23 0.22 0.22
0.10 0.13 0.17 0.12 0.13 0.34 0.61 0.51 0.45 0.48 0.37 0.22 0.20 0.20 0.19 0.15 0.11 0.08 0.08 0.10 0.13 0.16 0.16 0.20 0.18 0.17 0.19 0.24 0.29 0.37 0.40 0.41 0.41 0.45 0.48 0.46 0.46 0.40 0.32 0.25 0.24 0.25 0.24 0.26
0.17 0.22 0.25 0.22 0.23 0.42 0.57 0.38 0.34 0.39 0.33 0.16 0.11 0.11 0.09 0.07 0.05 0.03 0.02 0.05 0.06 0.06 0.07 0.09 0.09 0.09 0.10 0.10 0.11 0.14 0.17 0.19 0.23 0.30 0.36 0.39 0.39 0.35 0.30 0.25 0.31 0.36 0.33 0.31
0.30 0.32 0.32 0.31 0.37 0.50 0.39 0.15 0.15 0.27 0.38 0.13 0.06 0.05 0.04 0.03 0.04 0.02 0.02 0.04 0.03 0.02 0.02 0.03 0.03 0.03 0.02 0.02 0.02 0.03 0.05 0.09 0.13 0.19 0.24 0.28 0.30 0.34 0.37 0.45 0.52 0.52 0.47 0.40
0.19 0.25 0.31 0.39 0.56 0.57 0.33 0.13 0.15 0.28 0.40 0.18 0.05 0.02 0.01 0.01 0.01 0.00 0.02 0.03 0.02 0.01 0.00 0.00 0.01 0.00 0.00 0.00 0.00 0.00 0.01 0.02 0.02 0.04 0.10 0.18 0.29 0.34 0.44 0.55 0.58 0.56 0.50 0.41
0.18 0.28 0.38 0.50 0.66 0.74 0.38 0.19 0.21 0.19 0.13 0.10 0.04 0.01 0.01 0.00 0.00 0.00 0.01 0.01 0.01 0.01 0.00 0.00 0.00 0.00 0.00 0.00 0.00 0.00 0.00 0.00 0.01 0.03 0.07 0.13 0.20 0.29 0.42 0.51 0.50 0.49 0.47 0.44
0.18 0.33 0.45 0.50 0.56 0.47 0.28 0.16 0.11 0.08 0.08 0.03 0.01 0.01 0.00 0.00 0.00 0.00 0.01 0.01 0.01 0.01 0.00 0.00 0.00 0.00 0.00 0.00 0.00 0.00 0.00 0.00 0.00 0.01 0.02 0.06 0.11 0.22 0.36 0.39 0.39 0.42 0.44 0.43
0.08 0.11 0.18 0.20 0.15 0.14 0.11 0.08 0.04 0.03 0.04 0.01 0.00 0.00 0.00 0.00 0.00 0.00 0.00 0.01 0.00 0.00 0.00 0.00 0.00 0.00 0.00 0.00 0.00 0.00 0.00 0.00 0.00 0.00 0.00 0.01 0.02 0.05 0.10 0.15 0.20 0.26 0.31 0.32
0.09 0.10 0.17 0.20 0.10 0.05 0.04 0.04 0.02 0.02 0.02 0.01 0.00 0.00 0.00 0.00 0.00 0.00 0.00 0.00 0.00 0.00 0.00 0.00 0.00 0.00 0.00 0.00 0.00 0.00 0.00 0.00 0.00 0.00 0.00 0.01 0.02 0.03 0.04 0.06 0.09 0.12 0.15 0.19
0.05 0.12 0.16 0.20 0.12 0.06 0.04 0.03 0.02 0.02 0.01 0.01 0.00 0.00 0.00 0.00 0.00 0.00 0.00 0.00 0.00 0.00 0.00 0.00 0.00 0.00 0.00 0.00 0.00 0.00 0.00 0.00 0.00 0.00 0.00 0.00 0.01 0.01 0.01 0.02 0.03 0.04 0.06 0.09

GEFSCGP_prec_meanprecacc_054.txt.gz
Total_Precipitation_Accumulation
0.06 0.11 0.24 0.22 0.19 0.18 0.14 0.11 0.10 0.13 0.13 0.12 0.15 0.17 0.17 0.17 0.16 0.13 0.11 0.10 0.08 0.07 0.08 0.08 0.09 0.13 0.16 0.20 0.24 0.29 0.43 0.55 0.68 0.77 0.86 1.05 1.17 1.21 1.17 1.12 1.08 0.92 0.73 0.73
0.08 0.12 0.10 0.09 0.09 0.09 0.10 0.10 0.10 0.11 0.10 0.09 0.10 0.11 0.10 0.10 0.11 0.10 0.09 0.08 0.06 0.05 0.05 0.05 0.06 0.08 0.11 0.13 0.19 0.26 0.38 0.59 0.78 0.95 1.12 1.27 1.45 1.51 1.49 1.50 1.40 1.34 1.18 1.08
0.07 0.07 0.05 0.05 0.06 0.08 0.08 0.09 0.09 0.08 0.08 0.06 0.05 0.07 0.07 0.07 0.07 0.07 0.06 0.06 0.06 0.05 0.05 0.04 0.03 0.04 0.06 0.08 0.12 0.19 0.30 0.50 0.77 1.05 1.24 1.39 1.55 1.75 1.80 1.69 1.58 1.53 1.50 1.45
0.01 0.01 0.02 0.02 0.04 0.07 0.10 0.08 0.08 0.07 0.08 0.07 0.06 0.10 0.11 0.10 0.11 0.09 0.08 0.08 0.08 0.08 0.07 0.06 0.04 0.03 0.04 0.06 0.09 0.13 0.27 0.42 0.62 0.88 1.14 1.34 1.55 1.82 1.85 1.76 1.66 1.58 1.56 1.56
0.01 0.00 0.00 0.01 0.02 0.03 0.05 0.04 0.05 0.06 0.08 0.07 0.06 0.11 0.13 0.13 0.16 0.16 0.15 0.16 0.15 0.12 0.12 0.09 0.06 0.06 0.07 0.09 0.12 0.18 0.31 0.44 0.63 0.86 1.12 1.36 1.51 1.64 1.76 1.73 1.65 1.52 1.47 1.41
0.00 0.00 0.00 0.00 0.00 0.01 0.01 0.02 0.04 0.04 0.05 0.05 0.04 0.11 0.20 0.19 0.18 0.17 0.18 0.18 0.14 0.11 0.11 0.12 0.13 0.14 0.14 0.16 0.19 0.26 0.39 0.58 0.74 0.84 0.96 1.07 1.22 1.44 1.54 1.61 1.61 1.58 1.47 1.32
0.00 0.00 0.00 0.00 0.00 0.00 0.01 0.05 0.09 0.10 0.13 0.11 0.09 0.19 0.30 0.25 0.19 0.19 0.19 0.16 0.16 0.18 0.20 0.23 0.26 0.29 0.29 0.31 0.36 0.43 0.50 0.58 0.63 0.63 0.70 0.81 0.93 1.05 1.11 1.21 1.37 1.38 1.36 1.28
0.00 0.00 0.00 0.00 0.00 0.01 0.01 0.05 0.12 0.16 0.18 0.20 0.24 0.37 0.42 0.34 0.26 0.22 0.18 0.15 0.18 0.23 0.32 0.42 0.49 0.54 0.51 0.48 0.49 0.44 0.43 0.43 0.44 0.47 0.53 0.60 0.64 0.71 0.75 0.76 0.90 1.02 0.99 0.92
0.00 0.00 0.00 0.00 0.00 0.01 0.02 0.03 0.06 0.14 0.15 0.20 0.32 0.48 0.48 0.34 0.27 0.24 0.22 0.19 0.24 0.37 0.50 0.63 0.73 0.78 0.73 0.63 0.53 0.46 0.42 0.43 0.40 0.41 0.45 0.49 0.51 0.53 0.53 0.53 0.52 0.55 0.60 0.59
0.02 0.02 0.01 0.00 0.01 0.01 0.02 0.04 0.10 0.22 0.33 0.35 0.38 0.50 0.57 0.47 0.35 0.32 0.34 0.39 0.47 0.62 0.70 0.81 0.88 0.85 0.83 0.85 0.73 0.56 0.47 0.48 0.48 0.57 0.53 0.44 0.39 0.37 0.35 0.37 0.41 0.39 0.44 0.49
0.08 0.08 0.03 0.02 0.03 0.06 0.09 0.13 0.20 0.32 0.41 0.54 0.67 0.80 0.67 0.55 0.52 0.49 0.50 0.66 0.75 0.81 0.87 0.90 0.97 0.90 0.77 0.73 0.70 0.66 0.58 0.54 0.53 0.63 0.62 0.50 0.41 0.38 0.38 0.36 0.34 0.40 0.47 0.50
0.16 0.22 0.13 0.04 0.08 0.13 0.23 0.35 0.45 0.61 0.64 0.62 0.86 1.05 0.77 0.62 0.63 0.64 0.61 0.60 0.61 0.76 0.87 0.91 0.98 0.88 0.71 0.64 0.54 0.58 0.63 0.61 0.61 0.63 0.59 0.52 0.49 0.49 0.52 0.51 0.40 0.40 0.43 0.41
0.25 0.39 0.30 0.15 0.23 0.32 0.39 0.48 0.60 0.73 0.83 0.82 0.91 1.05 0.82 0.60 0.56 0.60 0.70 0.68 0.65 0.69 0.71 0.70 0.71 0.78 0.73 0.67 0.55 0.60 0.66 0.67 0.68 0.67 0.65 0.59 0.49 0.48 0.49 0.48 0.41 0.40 0.40 0.37
0.23 0.38 0.43 0.34 0.36 0.43 0.42 0.39 0.45 0.66 0.89 0.92 0.97 0.93 0.71 0.60 0.55 0.58 0.64 0.70 0.66 0.56 0.51 0.49 0.45 0.50 0.53 0.55 0.58 0.61 0.72 0.80 0.83 0.81 0.74 0.69 0.62 0.61 0.51 0.41 0.36 0.35 0.35 0.31
0.16 0.17 0.20 0.18 0.19 0.25 0.32 0.34 0.43 0.56 0.74 0.96 0.87 0.66 0.54 0.51 0.48 0.49 0.55 0.48 0.43 0.38 0.36 0.35 0.31 0.32 0.34 0.37 0.44 0.51 0.64 0.77 0.86 0.89 0.83 0.75 0.70 0.60 0.49 0.44 0.33 0.29 0.25 0.24
0.23 0.18 0.08 0.07 0.10 0.16 0.28 0.41 0.54 0.60 0.67 0.69 0.60 0.56 0.42 0.36 0.32 0.32 0.36 0.37 0.36 0.31 0.26 0.24 0.23 0.21 0.23 0.29 0.35 0.36 0.47 0.62 0.72 0.76 0.75 0.75 0.71 0.56 0.48 0.41 0.32 0.25 0.23 0.22
0.10 0.12 0.09 0.07 0.09 0.17 0.40 0.53 0.60 0.59 0.54 0.45 0.42 0.37 0.26 0.23 0.17 0.16 0.21 0.24 0.29 0.28 0.23 0.21 0.20 0.21 0.23 0.30 0.31 0.32 0.41 0.52 0.56 0.60 0.63 0.63 0.59 0.46 0.40 0.31 0.27 0.26 0.24 0.25
0.10 0.13 0.17 0.12 0.13 0.34 0.61 0.51 0.45 0.48 0.37 0.22 0.20 0.20 0.19 0.15 0.11 0.08 0.08 0.11 0.13 0.16 0.16 0.21 0.18 0.17 0.19 0.24 0.29 0.37 0.40 0.41 0.41 0.45 0.48 0.46 0.46 0.41 0.33 0.25 0.25 0.25 0.25 0.27
0.17 0.22 0.25 0.22 0.23 0.42 0.57 0.38 0.34 0.39 0.33 0.16 0.11 0.11 0.09 0.07 0.05 0.03 0.02 0.05 0.06 0.06 0.07 0.10 0.09 0.09 0.10 0.10 0.11 0.14 0.17 0.19 0.23 0.30 0.36 0.39 0.39 0.35 0.30 0.25 0.31 0.36 0.33 0.31
0.30 0.32 0.32 0.31 0.37 0.50 0.39 0.15 0.15 0.27 0.38 0.13 0.06 0.05 0.04 0.03 0.04 0.02 0.02 0.04 0.03 0.02 0.02 0.03 0.03 0.03 0.03 0.02 0.02 0.03 0.05 0.09 0.13 0.19 0.24 0.28 0.30 0.34 0.37 0.45 0.52 0.52 0.48 0.40
0.19 0.25 0.31 0.39 0.56 0.57 0.33 0.13 0.15 0.28 0.40 0.18 0.05 0.02 0.01 0.01 0.01 0.00 0.02 0.03 0.02 0.01 0.00 0.00 0.01 0.01 0.00 0.00 0.00 0.00 0.01 0.02 0.02 0.04 0.10 0.18 0.29 0.34 0.44 0.55 0.58 0.56 0.50 0.41
0.18 0.28 0.38 0.50 0.66 0.74 0.38 0.19 0.21 0.19 0.13 0.10 0.04 0.01 0.01 0.00 0.00 0.00 0.01 0.01 0.01 0.01 0.00 0.00 0.00 0.00 0.00 0.00 0.00 0.00 0.00 0.00 0.01 0.03 0.07 0.13 0.20 0.29 0.42 0.51 0.50 0.49 0.47 0.44
0.18 0.33 0.45 0.50 0.56 0.47 0.28 0.16 0.11 0.08 0.08 0.03 0.01 0.01 0.00 0.00 0.00 0.00 0.01 0.01 0.01 0.01 0.00 0.00 0.00 0.00 0.00 0.00 0.00 0.00 0.00 0.00 0.00 0.01 0.02 0.06 0.11 0.22 0.36 0.39 0.39 0.42 0.44 0.43
0.08 0.11 0.18 0.20 0.15 0.14 0.11 0.08 0.04 0.03 0.04 0.01 0.00 0.00 0.00 0.00 0.00 0.00 0.00 0.01 0.00 0.00 0.00 0.00 0.00 0.00 0.00 0.00 0.00 0.00 0.00 0.00 0.00 0.00 0.00 0.01 0.02 0.05 0.10 0.15 0.20 0.26 0.31 0.32
0.09 0.10 0.17 0.20 0.10 0.05 0.04 0.04 0.02 0.02 0.02 0.01 0.00 0.00 0.00 0.00 0.00 0.00 0.00 0.00 0.00 0.00 0.00 0.00 0.00 0.00 0.00 0.00 0.00 0.00 0.00 0.00 0.00 0.00 0.00 0.01 0.02 0.03 0.04 0.06 0.09 0.12 0.15 0.19
0.05 0.12 0.16 0.20 0.12 0.06 0.04 0.03 0.02 0.02 0.01 0.01 0.00 0.00 0.00 0.00 0.00 0.00 0.00 0.00 0.00 0.00 0.00 0.00 0.00 0.00 0.00 0.00 0.00 0.00 0.00 0.00 0.00 0.00 0.00 0.00 0.01 0.01 0.01 0.02 0.03 0.04 0.06 0.09